| time (UTC) | temp C | wind direction | speed KPH | gust KPH | rain 1hr cm | rain 24hr cm | rain mn cm | humidity % | barometer mb |
| 20260505124538 | 18 | 156 | 4.8 | 16.1 | 0.00 | 0.00 | 0.00 | 55 | 1012.7 |
| 20260505123518 | 18 | 198 | 6.4 | 20.9 | 0.00 | 0.00 | 0.00 | 55 | 1012.6 |
| 20260505122540 | 18 | 221 | 6.4 | 14.5 | 0.00 | 0.00 | 0.00 | 55 | 1012.6 |
| 20260505121519 | 18 | 227 | 6.4 | 17.7 | 0.00 | 0.00 | 0.00 | 56 | 1012.5 |
| 20260505120519 | 18 | 192 | 6.4 | 16.1 | 0.00 | 0.00 | 0.00 | 56 | 1012.4 |
| 20260505115519 | 18 | 186 | 4.8 | 14.5 | 0.00 | 0.00 | 0.00 | 57 | 1012.4 |
| 20260505114520 | 17 | 199 | 4.8 | 12.9 | 0.00 | 0.00 | 0.00 | 57 | 1012.3 |
| 20260505113540 | 17 | 182 | 6.4 | 14.5 | 0.00 | 0.00 | 0.00 | 57 | 1012.2 |
| 20260505112539 | 17 | 183 | 8.0 | 16.1 | 0.00 | 0.00 | 0.00 | 58 | 1012.2 |
| 20260505111520 | 17 | 182 | 6.4 | 12.9 | 0.00 | 0.00 | 0.00 | 58 | 1012.1 |
| 20260505110517 | 17 | 185 | 4.8 | 12.9 | 0.00 | 0.00 | 0.00 | 58 | 1012.1 |
| 20260505101523 | 17 | 188 | 6.4 | 11.3 | 0.00 | 0.00 | 0.00 | 59 | 1011.6 |
| 20260505100537 | 17 | 184 | 6.4 | 12.9 | 0.00 | 0.00 | 0.00 | 59 | 1011.5 |
| 20260505095517 | 17 | 182 | 4.8 | 9.7 | 0.00 | 0.00 | 0.00 | 59 | 1011.5 |
| 20260505094517 | 17 | 182 | 6.4 | 14.5 | 0.00 | 0.00 | 0.00 | 58 | 1011.4 |
| 20260505093519 | 17 | 186 | 4.8 | 14.5 | 0.00 | 0.00 | 0.00 | 58 | 1011.3 |
| 20260505092518 | 17 | 175 | 8.0 | 12.9 | 0.00 | 0.00 | 0.00 | 58 | 1011.2 |
| 20260505091525 | 17 | 174 | 8.0 | 14.5 | 0.00 | 0.00 | 0.00 | 58 | 1011.2 |
| 20260505090518 | 17 | 178 | 4.8 | 11.3 | 0.00 | 0.00 | 0.00 | 58 | 1011.2 |
| 20260505085518 | 17 | 182 | 8.0 | 16.1 | 0.00 | 0.00 | 0.00 | 57 | 1011.2 |
| 20260505084518 | 17 | 187 | 6.4 | 19.3 | 0.00 | 0.00 | 0.00 | 56 | 1011.2 |
| 20260505083519 | 17 | 185 | 6.4 | 17.7 | 0.00 | 0.00 | 0.00 | 56 | 1011.2 |
| 20260505082518 | 17 | 179 | 8.0 | 16.1 | 0.00 | 0.00 | 0.00 | 56 | 1011.2 |
| 20260505081518 | 17 | 182 | 6.4 | 12.9 | 0.00 | 0.00 | 0.00 | 55 | 1011.2 |
| 20260505080519 | 17 | 181 | 9.7 | 17.7 | 0.00 | 0.00 | 0.00 | 55 | 1011.1 |
| 20260505075519 | 17 | 182 | 11.3 | 22.5 | 0.00 | 0.00 | 0.00 | 54 | 1011.1 |
| 20260505074519 | 17 | 182 | 9.7 | 19.3 | 0.00 | 0.00 | 0.00 | 54 | 1011.1 |
| 20260505073520 | 17 | 180 | 11.3 | 19.3 | 0.00 | 0.00 | 0.00 | 54 | 1011.1 |
| 20260505072540 | 17 | 180 | 9.7 | 19.3 | 0.00 | 0.00 | 0.00 | 55 | 1011.0 |
| 20260505071519 | 17 | 179 | 9.7 | 16.1 | 0.00 | 0.00 | 0.00 | 55 | 1011.0 |
| 20260505070519 | 18 | 180 | 8.0 | 17.7 | 0.00 | 0.00 | 0.00 | 54 | 1010.9 |
| 20260505065519 | 17 | 180 | 9.7 | 17.7 | 0.00 | 0.00 | 0.00 | 54 | 1010.9 |
| 20260505064539 | 17 | 178 | 9.7 | 16.1 | 0.00 | 0.00 | 0.00 | 55 | 1010.8 |
| 20260505063519 | 17 | 181 | 8.0 | 14.5 | 0.00 | 0.00 | 0.00 | 55 | 1010.9 |
| 20260505062520 | 18 | 183 | 6.4 | 9.7 | 0.00 | 0.00 | 0.00 | 55 | 1010.8 |
| 20260505061540 | 18 | 181 | 8.0 | 9.7 | 0.00 | 0.00 | 0.00 | 54 | 1010.9 |
| 20260505060530 | 18 | 183 | 3.2 | 8.0 | 0.00 | 0.00 | 0.00 | 54 | 1010.9 |
| 20260505055530 | 17 | 180 | 4.8 | 8.0 | 0.00 | 0.00 | 0.00 | 55 | 1010.9 |
| 20260505054550 | 18 | 178 | 4.8 | 8.0 | 0.00 | 0.00 | 0.00 | 55 | 1011.0 |
| 20260505053520 | 18 | 178 | 4.8 | 9.7 | 0.00 | 0.00 | 0.00 | 54 | 1011.0 |
| 20260505052520 | 18 | 177 | 4.8 | 9.7 | 0.00 | 0.00 | 0.00 | 53 | 1011.0 |
| 20260505051522 | 18 | 173 | 6.4 | 9.7 | 0.00 | 0.00 | 0.00 | 52 | 1011.1 |
| 20260505050521 | 18 | 173 | 4.8 | 11.3 | 0.00 | 0.00 | 0.00 | 51 | 1011.1 |
| 20260505041521 | 19 | 161 | 3.2 | 8.0 | 0.00 | 0.00 | 0.00 | 49 | 1011.0 |
| 20260505040521 | 20 | 163 | 3.2 | 9.7 | 0.00 | 0.00 | 0.00 | 48 | 1011.0 |
| 20260505035521 | 20 | 165 | 3.2 | 9.7 | 0.00 | 0.00 | 0.00 | 48 | 1010.9 |
| 20260505034521 | 20 | 169 | 4.8 | 11.3 | 0.00 | 0.00 | 0.00 | 47 | 1010.8 |
| 20260505033521 | 20 | 171 | 3.2 | 8.0 | 0.00 | 0.00 | 0.00 | 46 | 1010.8 |
| 20260505032519 | 20 | 170 | 4.8 | 8.0 | 0.00 | 0.00 | 0.00 | 46 | 1010.8 |
| 20260505031519 | 20 | 179 | 4.8 | 11.3 | 0.00 | 0.00 | 0.00 | 45 | 1010.8 |
| 20260505030559 | 21 | 183 | 6.4 | 11.3 | 0.00 | 0.00 | 0.00 | 44 | 1010.8 |
| 20260505025521 | 21 | 182 | 6.4 | 12.9 | 0.00 | 0.00 | 0.00 | 44 | 1010.8 |
| 20260505024520 | 21 | 179 | 6.4 | 14.5 | 0.00 | 0.00 | 0.00 | 43 | 1010.8 |
| 20260505023520 | 21 | 180 | 8.0 | 14.5 | 0.00 | 0.00 | 0.00 | 43 | 1010.8 |
| 20260505022517 | 21 | 179 | 8.0 | 16.1 | 0.00 | 0.00 | 0.00 | 43 | 1010.7 |
| 20260505021517 | 21 | 180 | 9.7 | 14.5 | 0.00 | 0.00 | 0.00 | 43 | 1010.6 |
| 20260505020520 | 21 | 180 | 9.7 | 17.7 | 0.00 | 0.00 | 0.00 | 42 | 1010.7 |
| 20260505015520 | 21 | 180 | 8.0 | 16.1 | 0.00 | 0.00 | 0.00 | 42 | 1010.6 |
| 20260505014521 | 21 | 173 | 11.3 | 20.9 | 0.00 | 0.00 | 0.00 | 41 | 1010.4 |
| 20260505013518 | 21 | 172 | 11.3 | 19.3 | 0.00 | 0.00 | 0.00 | 42 | 1010.4 |
| 20260505012519 | 21 | 172 | 11.3 | 17.7 | 0.00 | 0.00 | 0.00 | 42 | 1010.3 |
| 20260505011518 | 22 | 170 | 12.9 | 19.3 | 0.00 | 0.00 | 0.00 | 41 | 1010.2 |
| 20260505010518 | 22 | 168 | 12.9 | 17.7 | 0.00 | 0.00 | 0.00 | 40 | 1010.2 |
| 20260505005641 | 22 | 165 | 12.9 | 17.7 | 0.00 | 0.00 | 0.00 | 40 | 1010.1 |
| 20260505004518 | 22 | 166 | 11.3 | 17.7 | 0.00 | 0.00 | 0.00 | 39 | 1010.0 |
| 20260505003518 | 22 | 162 | 11.3 | 17.7 | 0.00 | 0.00 | 0.00 | 38 | 1009.9 |
| 20260505002519 | 22 | 163 | 9.7 | 16.1 | 0.00 | 0.00 | 0.00 | 38 | 1009.9 |
| 20260505001519 | 23 | 164 | 11.3 | 16.1 | 0.00 | 0.00 | 0.00 | 38 | 1009.9 |
| 20260505000519 | 23 | 167 | 9.7 | 17.7 | 0.00 | 0.00 | 0.00 | 38 | 1009.8 |
| 20260504235519 | 23 | 169 | 11.3 | 19.3 | 0.00 | 0.00 | 0.00 | 37 | 1009.8 |
| 20260504234519 | 23 | 168 | 12.9 | 20.9 | 0.00 | 0.00 | 0.00 | 36 | 1009.7 |
| 20260504233521 | 23 | 169 | 12.9 | 29.0 | 0.00 | 0.00 | 0.00 | 36 | 1009.7 |
| 20260504232521 | 23 | 170 | 12.9 | 22.5 | 0.00 | 0.00 | 0.00 | 35 | 1009.6 |
| 20260504231519 | 23 | 176 | 14.5 | 25.7 | 0.00 | 0.00 | 0.00 | 35 | 1009.5 |
| 20260504230521 | 23 | 172 | 12.9 | 24.1 | 0.00 | 0.00 | 0.00 | 35 | 1009.6 |
| 20260504225517 | 23 | 171 | 12.9 | 20.9 | 0.00 | 0.00 | 0.00 | 35 | 1009.6 |
| 20260504224517 | 23 | 170 | 12.9 | 25.7 | 0.00 | 0.00 | 0.00 | 35 | 1009.7 |
| 20260504223520 | 23 | 172 | 11.3 | 27.4 | 0.00 | 0.00 | 0.00 | 34 | 1009.7 |
| 20260504222541 | 23 | 173 | 19.3 | 35.4 | 0.00 | 0.00 | 0.00 | 34 | 1009.6 |
| 20260504221520 | 23 | 176 | 11.3 | 25.7 | 0.00 | 0.00 | 0.00 | 33 | 1009.6 |
| 20260504220537 | 23 | 181 | 14.5 | 30.6 | 0.00 | 0.00 | 0.00 | 33 | 1009.5 |
| 20260504215518 | 23 | 173 | 14.5 | 27.4 | 0.00 | 0.00 | 0.00 | 32 | 1009.4 |
| 20260504214517 | 23 | 172 | 17.7 | 27.4 | 0.00 | 0.00 | 0.00 | 32 | 1009.5 |
| 20260504213518 | 23 | 175 | 19.3 | 32.2 | 0.00 | 0.00 | 0.00 | 32 | 1009.5 |
| 20260504212521 | 23 | 171 | 11.3 | 25.7 | 0.00 | 0.00 | 0.00 | 32 | 1009.5 |
| 20260504211518 | 23 | 172 | 14.5 | 27.4 | 0.00 | 0.00 | 0.00 | 32 | 1009.5 |
| 20260504210538 | 23 | 174 | 19.3 | 37.0 | 0.00 | 0.00 | 0.00 | 32 | 1009.4 |
| 20260504205539 | 23 | 173 | 19.3 | 38.6 | 0.00 | 0.00 | 0.00 | 32 | 1009.5 |
| 20260504204518 | 23 | 173 | 12.9 | 25.7 | 0.00 | 0.00 | 0.00 | 32 | 1009.7 |
| 20260504203519 | 23 | 171 | 17.7 | 29.0 | 0.00 | 0.00 | 0.00 | 32 | 1009.6 |
| 20260504202519 | 23 | 172 | 19.3 | 37.0 | 0.00 | 0.00 | 0.00 | 32 | 1010.0 |
| 20260504201520 | 23 | 166 | 14.5 | 29.0 | 0.00 | 0.00 | 0.00 | 32 | 1010.0 |
| 20260504200519 | 22 | 166 | 17.7 | 29.0 | 0.00 | 0.00 | 0.00 | 33 | 1010.1 |
| 20260504195539 | 22 | 172 | 14.5 | 29.0 | 0.00 | 0.00 | 0.00 | 33 | 1010.3 |
| 20260504194519 | 22 | 164 | 16.1 | 29.0 | 0.00 | 0.00 | 0.00 | 33 | 1010.3 |
| 20260504193519 | 22 | 171 | 11.3 | 25.7 | 0.00 | 0.00 | 0.00 | 33 | 1010.6 |
| 20260504192519 | 22 | 192 | 11.3 | 20.9 | 0.00 | 0.00 | 0.00 | 33 | 1010.7 |
| 20260504191516 | 22 | 165 | 22.5 | 40.2 | 0.00 | 0.00 | 0.00 | 33 | 1010.9 |
| 20260504190520 | 22 | 167 | 17.7 | 25.7 | 0.00 | 0.00 | 0.00 | 33 | 1011.1 |
| 20260504185521 | 22 | 188 | 6.4 | 17.7 | 0.00 | 0.00 | 0.00 | 34 | 1011.3 |
| 20260504184520 | 21 | 157 | 16.1 | 22.5 | 0.00 | 0.03 | 0.00 | 35 | 1011.4 |
| 20260504183521 | 21 | 166 | 14.5 | 22.5 | 0.00 | 0.03 | 0.00 | 35 | 1011.6 |
| 20260504182519 | 21 | 170 | 19.3 | 30.6 | 0.00 | 0.03 | 0.00 | 35 | 1011.7 |
| 20260504181517 | 21 | 186 | 9.7 | 20.9 | 0.00 | 0.03 | 0.00 | 35 | 1011.9 |
| 20260504180518 | 21 | 179 | 14.5 | 25.7 | 0.00 | 0.03 | 0.00 | 35 | 1012.0 |
| 20260504175519 | 20 | 196 | 8.0 | 22.5 | 0.00 | 0.03 | 0.00 | 37 | 1012.2 |
| 20260504174518 | 20 | 175 | 16.1 | 22.5 | 0.00 | 0.03 | 0.00 | 37 | 1012.2 |
| 20260504173518 | 20 | 175 | 9.7 | 22.5 | 0.00 | 0.03 | 0.00 | 38 | 1012.3 |
| 20260504172518 | 20 | 175 | 14.5 | 32.2 | 0.00 | 0.03 | 0.00 | 38 | 1012.4 |
| 20260504171518 | 20 | 176 | 11.3 | 22.5 | 0.00 | 0.03 | 0.00 | 37 | 1012.6 |
| 20260504170518 | 20 | 184 | 6.4 | 19.3 | 0.00 | 0.03 | 0.00 | 36 | 1012.7 |
| 20260504150517 | 17 | 167 | 11.3 | 19.3 | 0.00 | 0.03 | 0.00 | 38 | 1013.8 |
| 20260504140518 | 14 | 172 | 8.0 | 14.5 | 0.00 | 0.03 | 0.00 | 50 | 1014.2 |